Location: Quaking Asp Canyon
(38.4683°N, 119.2327°W)
Time: 17:27:46
(UTC+00:00)

Daily predictions for brighter satellites

Satellite Brightness Start Highest point End
(mag) Time Altitude Azimuth Time Altitude Azimuth Time Altitude Azimuth
Cosmos 1263 4.3 12:05:58 10° N 12:09:07 76° E 12:12:03 10° S
SL-8 R/B 3.9 12:05:26 10° WSW 12:10:14 68° NNW 12:15:01 10° NE
Cosmos 1464 Rocket 4.2 12:05:32 10° S 12:11:53 87° E 12:18:19 10° N
